{"data":{"norad_id":87245,"epoch":"2026-09-17T14:17:05.578080Z","epoch_age_seconds":265378,"freshness":"STALE","line1":"1 87245U          26260.59520345  .00001989  00000+0  39966-3 0  9997","line2":"2 87245  65.6396  20.2981 0432802 342.6022  28.2534 14.18361116653722","mean_motion":14.18361116,"eccentricity":0.0432802,"inclination_deg":65.6396,"raan_deg":20.2981,"arg_perigee_deg":342.6022,"mean_anomaly_deg":28.2534,"bstar":0.00039966,"rev_number":65372,"period_min":101.52562586184,"perigee_km":518.89210927898,"apogee_km":1142.9092964542,"semimajor_km":7209.0377028666,"source":"CELESTRAK","updated_at":"2026-09-20T09:00:32.452593Z"}}